Hourly Weather Belyaevka

Today, 5 July, Sunday

Time Temperature Precipitation Wind Pressure Humidity
00:00 +26°C° 0.1 mm 5 mps 751 mmHg 79%
01:00 +25°C° 0.1 mm 5 mps 751 mmHg 82%
02:00 +23°C° 0.1 mm 5 mps 751 mmHg 85%
03:00 +23°C° 0.1 mm 6 mps 751 mmHg 86%
04:00 +22°C° 0.1 mm 6 mps 751 mmHg 88%
05:00 +22°C° 0.1 mm 6 mps 751 mmHg 89%
06:00 +23°C° 0 mm 6 mps 751 mmHg 84%
07:00 +26°C° 0 mm 6 mps 751 mmHg 78%
08:00 +27°C° 0 mm 6 mps 751 mmHg 72%
09:00 +28°C° 0 mm 6 mps 752 mmHg 66%
10:00 +30°C° 0 mm 6 mps 752 mmHg 59%
11:00 +33°C° 0 mm 6 mps 752 mmHg 53%
12:00 +34°C° 0 mm 6 mps 752 mmHg 49%
13:00 +35°C° 0 mm 6 mps 751 mmHg 45%
14:00 +36°C° 0 mm 5 mps 751 mmHg 41%
15:00 +35°C° 0 mm 6 mps 751 mmHg 42%
16:00 +35°C° 0 mm 6 mps 751 mmHg 44%
17:00 +34°C° 0 mm 6 mps 751 mmHg 45%
18:00 +33°C° 0 mm 6 mps 751 mmHg 51%
19:00 +30°C° 0 mm 5 mps 751 mmHg 57%
20:00 +29°C° 0 mm 5 mps 751 mmHg 63%
21:00 +28°C° 0.1 mm 5 mps 751 mmHg 67%
22:00 +27°C° 0.1 mm 6 mps 751 mmHg 71%
23:00 +26°C° 0.1 mm 6 mps 751 mmHg 75%

Tomorrow, 6 July, Monday

Time Temperature Precipitation Wind Pressure Humidity
00:00 +26°C° 0 mm 6 mps 751 mmHg 77%
01:00 +24°C° 0 mm 6 mps 751 mmHg 78%
02:00 +23°C° 0 mm 5 mps 751 mmHg 80%
03:00 +23°C° 0 mm 5 mps 751 mmHg 81%
04:00 +23°C° 0 mm 6 mps 751 mmHg 82%
05:00 +22°C° 0 mm 6 mps 751 mmHg 83%
06:00 +24°C° 0 mm 6 mps 751 mmHg 77%
07:00 +26°C° 0 mm 6 mps 751 mmHg 71%
08:00 +28°C° 0 mm 6 mps 751 mmHg 65%
09:00 +29°C° 0 mm 5 mps 751 mmHg 59%
10:00 +32°C° 0 mm 5 mps 751 mmHg 53%
11:00 +34°C° 0 mm 5 mps 750 mmHg 47%
12:00 +34°C° 0 mm 4 mps 750 mmHg 45%
13:00 +35°C° 0 mm 4 mps 750 mmHg 42%
14:00 +36°C° 0 mm 3 mps 749 mmHg 40%
15:00 +35°C° 0.1 mm 3 mps 749 mmHg 42%
16:00 +34°C° 0.1 mm 3 mps 748 mmHg 44%
17:00 +34°C° 0.1 mm 3 mps 748 mmHg 46%
18:00 +30°C° 1.4 mm 4 mps 748 mmHg 54%
19:00 +28°C° 1.4 mm 4 mps 748 mmHg 63%
20:00 +25°C° 1.4 mm 5 mps 748 mmHg 72%
21:00 +25°C° 0.7 mm 5 mps 748 mmHg 73%
22:00 +25°C° 0.7 mm 4 mps 748 mmHg 74%
23:00 +23°C° 0.7 mm 4 mps 748 mmHg 75%

Day after tomorrow, 7 July, Tuesday

Time Temperature Precipitation Wind Pressure Humidity
00:00 +23°C° 0.2 mm 4 mps 747 mmHg 78%
01:00 +23°C° 0.2 mm 4 mps 747 mmHg 80%
02:00 +23°C° 0.2 mm 4 mps 747 mmHg 83%
03:00 +23°C° 0.2 mm 4 mps 747 mmHg 83%
04:00 +23°C° 0.2 mm 4 mps 746 mmHg 83%
05:00 +24°C° 0.2 mm 3 mps 746 mmHg 83%
06:00 +25°C° 0 mm 3 mps 746 mmHg 77%
07:00 +27°C° 0 mm 3 mps 747 mmHg 71%
08:00 +29°C° 0 mm 3 mps 747 mmHg 64%
09:00 +30°C° 0 mm 3 mps 747 mmHg 58%
10:00 +33°C° 0 mm 3 mps 747 mmHg 51%
11:00 +35°C° 0 mm 3 mps 747 mmHg 44%
12:00 +35°C° 0 mm 3 mps 746 mmHg 42%
13:00 +35°C° 0 mm 2 mps 746 mmHg 39%
14:00 +36°C° 0 mm 2 mps 746 mmHg 37%
15:00 +34°C° 0.4 mm 3 mps 746 mmHg 46%
16:00 +32°C° 0.4 mm 5 mps 746 mmHg 54%
17:00 +29°C° 0.4 mm 7 mps 746 mmHg 63%
18:00 +28°C° 0.9 mm 6 mps 746 mmHg 67%
19:00 +27°C° 0.9 mm 6 mps 747 mmHg 71%
20:00 +26°C° 0.9 mm 6 mps 747 mmHg 75%
21:00 +25°C° 0.1 mm 5 mps 748 mmHg 77%
22:00 +23°C° 0.1 mm 4 mps 748 mmHg 79%
23:00 +22°C° 0.1 mm 4 mps 748 mmHg 81%

8 July, Wednesday

Time Temperature Precipitation Wind Pressure Humidity
00:00 +22°C° 0 mm 4 mps 748 mmHg 83%
01:00 +21°C° 0 mm 4 mps 748 mmHg 84%
02:00 +21°C° 0 mm 4 mps 748 mmHg 85%
03:00 +21°C° 0 mm 5 mps 748 mmHg 86%
04:00 +21°C° 0 mm 5 mps 749 mmHg 87%
05:00 +21°C° 0 mm 6 mps 749 mmHg 88%
06:00 +22°C° 0 mm 6 mps 749 mmHg 84%
07:00 +23°C° 0 mm 7 mps 749 mmHg 80%
08:00 +24°C° 0 mm 7 mps 749 mmHg 76%
09:00 +26°C° 0 mm 7 mps 750 mmHg 72%
10:00 +27°C° 0 mm 7 mps 750 mmHg 68%
11:00 +28°C° 0 mm 8 mps 750 mmHg 63%
12:00 +28°C° 0 mm 8 mps 750 mmHg 62%
13:00 +28°C° 0 mm 8 mps 750 mmHg 61%
14:00 +29°C° 0 mm 8 mps 750 mmHg 59%
15:00 +28°C° 0 mm 8 mps 750 mmHg 60%
16:00 +28°C° 0 mm 8 mps 750 mmHg 61%
17:00 +27°C° 0 mm 8 mps 750 mmHg 62%
18:00 +26°C° 0 mm 7 mps 750 mmHg 66%
19:00 +23°C° 0 mm 7 mps 750 mmHg 70%
20:00 +22°C° 0 mm 7 mps 751 mmHg 74%
21:00 +21°C° 0 mm 7 mps 751 mmHg 74%
22:00 +20°C° 0 mm 7 mps 751 mmHg 75%
23:00 +20°C° 0 mm 7 mps 751 mmHg 75%

9 July, Thursday

Time Temperature Precipitation Wind Pressure Humidity
00:00 +20°C° 0 mm 7 mps 751 mmHg 75%
01:00 +18°C° 0 mm 7 mps 751 mmHg 74%
02:00 +18°C° 0 mm 7 mps 751 mmHg 74%
03:00 +18°C° 0 mm 7 mps 752 mmHg 75%
04:00 +18°C° 0 mm 7 mps 752 mmHg 77%
05:00 +18°C° 0 mm 7 mps 752 mmHg 78%
06:00 +20°C° 0 mm 8 mps 752 mmHg 72%
07:00 +22°C° 0 mm 8 mps 752 mmHg 66%
08:00 +23°C° 0 mm 8 mps 753 mmHg 60%
09:00 +24°C° 0 mm 8 mps 753 mmHg 56%
10:00 +26°C° 0 mm 8 mps 753 mmHg 52%
11:00 +28°C° 0 mm 7 mps 753 mmHg 48%
12:00 +28°C° 0 mm 7 mps 753 mmHg 47%
13:00 +28°C° 0 mm 7 mps 753 mmHg 45%
14:00 +29°C° 0 mm 7 mps 753 mmHg 44%
15:00 +29°C° 0 mm 7 mps 753 mmHg 44%
16:00 +28°C° 0 mm 7 mps 753 mmHg 45%
17:00 +28°C° 0 mm 7 mps 753 mmHg 45%
18:00 +26°C° 0 mm 6 mps 753 mmHg 50%
19:00 +24°C° 0 mm 6 mps 753 mmHg 55%
20:00 +22°C° 0 mm 5 mps 753 mmHg 59%
21:00 +21°C° 0 mm 5 mps 754 mmHg 63%
22:00 +21°C° 0 mm 4 mps 754 mmHg 67%
23:00 +20°C° 0 mm 4 mps 754 mmHg 71%

10 July, Friday

Time Temperature Precipitation Wind Pressure Humidity
00:00 +19°C° 0 mm 4 mps 755 mmHg 73%
01:00 +19°C° 0 mm 4 mps 755 mmHg 74%
02:00 +18°C° 0 mm 4 mps 755 mmHg 76%
03:00 +18°C° 0 mm 4 mps 755 mmHg 78%
04:00 +18°C° 0 mm 4 mps 755 mmHg 79%
05:00 +18°C° 0 mm 4 mps 755 mmHg 81%
06:00 +19°C° 0 mm 4 mps 755 mmHg 75%
07:00 +21°C° 0 mm 4 mps 755 mmHg 69%
08:00 +22°C° 0 mm 5 mps 756 mmHg 63%
09:00 +25°C° 0 mm 5 mps 756 mmHg 57%
10:00 +26°C° 0 mm 5 mps 756 mmHg 50%
11:00 +28°C° 0 mm 5 mps 756 mmHg 43%
12:00 +28°C° 0 mm 5 mps 755 mmHg 41%
13:00 +29°C° 0 mm 5 mps 755 mmHg 38%
14:00 +30°C° 0 mm 5 mps 755 mmHg 35%
15:00 +29°C° 0 mm 4 mps 755 mmHg 36%
16:00 +29°C° 0 mm 4 mps 755 mmHg 36%
17:00 +29°C° 0 mm 4 mps 755 mmHg 36%
18:00 +27°C° 0 mm 4 mps 755 mmHg 40%
19:00 +25°C° 0 mm 4 mps 755 mmHg 45%
20:00 +24°C° 0 mm 3 mps 755 mmHg 49%
21:00 +22°C° 0 mm 3 mps 756 mmHg 51%
22:00 +21°C° 0 mm 3 mps 756 mmHg 53%
23:00 +20°C° 0 mm 4 mps 756 mmHg 54%
Show more